Location: ???????
(55.4362°N, 38.1183°E)
Time: 03:09:48
(UTC+00:00)

SL-16 R/B - Pass Details

Date: 17 June 2021
Orbit: 843 x 845 km, 71.0° (Epoch: 26 July)

Event Time Altitude Azimuth Distance (km) Brightness Sun altitude
Rises 19:46:46 0° 236° (SW) 3,397 5.2 -8.2°
Reaches altitude 10° 19:49:19 10° 242° (WSW) 2,465 4.6 -8.4°
Maximum altitude 19:54:45 46° 316° (NW) 1,126 3.4 -8.7°
Drops below altitude 10° 20:00:13 10° 29° (NNE) 2,479 5.2 -8.9°
Sets 20:02:48 0° 36° (NE) 3,418 5.9 -9.1°
